User: anonymous   Login
Location: Theydon Bois
(51.6750°N, 0.1050°E)
Time: 21:34:19
(UTC+01:00)
Language:

ALOS - Orbit

View from above orbital plane
View from above orbital plane
View from above satellite
View from above satellite

Ground track
Ground track

The orbit data is extracted from the following two-line orbital elements,

1 28931U 06002A   18197.51150156  .00000129  00000-0  34118-4 0  9994
2 28931  97.8173 209.5379 0001761 110.6882 249.4508 14.62510848665093
Epoch (UTC): 16 July 2018 12:16:33
Eccentricity: 0.0001761
inclination: 97.8173°
perigee height: 684 km
apogee height: 686 km
right ascension of ascending node: 209.5379°
argument of perigee: 110.6882°
revolutions per day: 14.62510848
mean anomaly at epoch: 249.4508°
orbit number at epoch: 66509

The dashed part of the orbit path shows where the satellite is in the earth's shadow,  

DLR